Tracking 19832 objects as of 25-Aug-2019
HD Live streaming from Space Station
objects crossing your sky now

FENGYUN 1C DEB

Track FENGYUN 1C DEB now!
10-day predictions


NORAD ID: 37442
Int'l Code: 1999-025EHL
Perigee: 687.1 km
Apogee: 742.1 km
Inclination: 99.1 °
Period: 98.9 minutes
Semi major axis: 7085 km
RCS: 0.0129 m2 (small)
Launch date: May 10, 1999
Source: People's Republic of China (PRC)
Launch site: Taiyaun Space Center, China (TSC)

Note: This is SATELLITE DEBRIS
aabbcc
Your satellite tracking list
Your tracking list is empty




NASA's NSSDC Master Catalog

Two Line Element Set (TLE):
1 37442U 99025EHL 19234.20685707 +.00001432 +00000-0 +33779-3 0  9991
2 37442 099.1480 220.5263 0038799 209.4222 150.4789 14.55576403528346
Source of the keplerian elements: AFSPC